EW1804 Weather Reports


Display with metric or nautical units.
time (UTC)temp
F
wind
direction
speed
MPH
gust
MPH
rain 1hr
in
rain 24hr
in
rain mn
in
humidity
%
barometer
mb
20260508192524 51 16 6.0 11.0 0.00 0.45 0.00 82 1001.1
20260508192003 50 360 6.0 11.0 0.00 0.46 0.00 82 1001.1
20260508191503 50 4 6.0 13.0 0.00 0.47 0.00 82 1001.2
20260508191003 50 3 7.0 13.0 0.00 0.49 0.00 81 1001.1
20260508190503 50 2 6.0 12.0 0.00 0.50 0.00 81 1001.2
20260508190003 51 6 6.0 12.0 0.00 0.52 0.00 78 1001.0
20260508185503 52 21 7.0 12.0 0.00 0.54 0.00 78 1001.0
20260508185004 52 31 8.0 12.0 0.00 0.54 0.00 80 1000.9
20260508184503 52 26 8.0 13.0 0.00 0.55 0.00 82 1000.8
20260508184003 52 16 7.0 13.0 0.00 0.56 0.00 81 1000.8
20260508183503 52 6 6.0 12.0 0.00 0.56 0.00 81 1000.9
20260508183024 52 2 6.0 10.0 0.00 0.57 0.00 82 1001.0
20260508182503 52 2 5.0 13.0 0.00 0.57 0.00 82 1001.1
20260508182004 52 8 7.0 13.0 0.00 0.57 0.00 83 1001.1
20260508181503 51 9 8.0 13.0 0.00 0.58 0.00 83 1001.2
20260508181024 52 1 7.0 13.0 0.00 0.58 0.00 82 1001.1
20260508180503 52 357 5.0 10.0 0.00 0.58 0.00 84 1001.3
20260508180003 51 2 4.0 9.0 0.00 0.58 0.00 85 1001.4
20260508175503 51 357 5.0 10.0 0.00 0.58 0.00 85 1001.3
20260508175003 51 347 5.0 10.0 0.00 0.58 0.00 84 1001.4
20260508174506 51 347 4.0 11.0 0.00 0.58 0.00 84 1001.3
20260508174004 51 355 5.0 11.0 0.00 0.58 0.00 85 1001.4
20260508173503 51 353 5.0 11.0 0.00 0.58 0.00 88 1001.4
20260508173003 50 353 5.0 10.0 0.00 0.58 0.00 88 1001.5
20260508172524 49 354 4.0 9.0 0.00 0.58 0.00 88 1001.4
20260508172025 49 353 4.0 10.0 0.00 0.58 0.00 87 1001.4
20260508171503 48 359 4.0 10.0 0.00 0.58 0.00 89 1001.5
20260508171004 48 2 3.0 8.0 0.00 0.58 0.00 89 1001.7
20260508170524 47 5 2.0 8.0 0.00 0.58 0.00 89 1001.7
20260508170003 47 4 3.0 8.0 0.00 0.58 0.00 89 1001.6
20260508165503 47 353 3.0 6.0 0.00 0.58 0.00 90 1001.6
20260508165004 46 350 3.0 9.0 0.00 0.58 0.00 89 1001.5
20260508164503 46 349 3.0 9.0 0.00 0.58 0.00 88 1001.5
20260508164003 46 351 4.0 9.0 0.00 0.58 0.00 88 1001.6
20260508163503 47 354 4.0 9.0 0.00 0.58 0.00 87 1001.5
20260508163003 47 9 4.0 8.0 0.00 0.58 0.00 88 1001.5
20260508162524 47 11 4.0 9.0 0.00 0.58 0.00 87 1001.6
20260508162004 47 353 4.0 9.0 0.00 0.58 0.00 87 1001.6
20260508161504 47 346 4.0 8.0 0.00 0.58 0.00 88 1001.5
20260508161003 47 354 4.0 10.0 0.00 0.58 0.00 88 1001.4
20260508160503 47 352 4.0 10.0 0.00 0.58 0.00 88 1001.3
20260508160024 47 346 4.0 9.0 0.00 0.58 0.00 87 1001.4
20260508155503 47 346 4.0 9.0 0.00 0.58 0.00 86 1001.4
20260508155003 48 349 6.0 12.0 0.00 0.58 0.00 86 1001.4
20260508154503 48 1 6.0 12.0 0.00 0.58 0.00 87 1001.1
20260508154024 48 2 5.0 11.0 0.00 0.58 0.00 88 1001.2
20260508153524 48 351 4.0 10.0 0.00 0.58 0.00 88 1001.6
20260508153003 48 352 5.0 11.0 0.00 0.58 0.00 89 1001.6
20260508152503 48 347 5.0 11.0 0.00 0.58 0.00 89 1001.5
20260508152003 47 342 4.0 10.0 0.00 0.58 0.00 88 1001.6
20260508151503 47 348 5.0 10.0 0.00 0.58 0.00 89 1001.4
20260508151003 47 346 5.0 10.0 0.00 0.58 0.00 89 1001.4
20260508150503 47 343 4.0 10.0 0.00 0.58 0.00 89 1001.4
20260508150003 47 354 4.0 10.0 0.00 0.58 0.00 90 1001.5
20260508145503 47 1 5.0 10.0 0.00 0.58 0.00 89 1001.6
20260508145024 46 353 5.0 11.0 0.00 0.58 0.00 89 1001.7
20260508144503 46 349 5.0 11.0 0.00 0.58 0.00 88 1001.8
20260508144003 46 344 5.0 10.0 0.00 0.58 0.00 88 1001.8
20260508143503 47 341 5.0 9.0 0.00 0.58 0.00 88 1001.8
20260508143003 47 346 6.0 12.0 0.00 0.58 0.00 89 1001.7
20260508142524 48 345 6.0 12.0 0.00 0.58 0.00 89 1001.8
20260508142003 48 345 4.0 11.0 0.00 0.58 0.00 89 1002.0
20260508141525 48 347 5.0 11.0 0.00 0.58 0.00 89 1002.0
20260508141003 48 354 6.0 11.0 0.00 0.58 0.00 90 1002.2
20260508140524 48 354 6.0 12.0 0.00 0.58 0.00 91 1002.1
20260508140003 48 345 5.0 12.0 0.00 0.58 0.00 91 1002.2
20260508135503 48 337 4.0 11.0 0.00 0.58 0.00 91 1002.3
20260508135003 48 332 5.0 10.0 0.00 0.58 0.00 91 1002.5
20260508134503 48 329 5.0 10.0 0.00 0.58 0.00 92 1002.5
20260508134003 48 334 4.0 9.0 0.00 0.58 0.00 93 1002.7
20260508133503 48 349 4.0 9.0 0.00 0.58 0.00 94 1002.5
20260508133024 47 351 4.0 8.0 0.00 0.58 0.00 94 1002.6
20260508132504 47 349 4.0 8.0 0.00 0.58 0.00 94 1002.5
20260508132003 47 349 4.0 9.0 0.00 0.58 0.00 95 1002.3
20260508131504 47 348 4.0 10.0 0.00 0.58 0.00 95 1002.1
20260508131003 46 348 5.0 10.0 0.00 0.58 0.00 95 1002.1
20260508130503 47 344 5.0 11.0 0.00 0.58 0.00 95 1001.9
20260508130024 48 347 5.0 11.0 0.00 0.58 0.00 95 1002.0
20260508125524 48 352 6.0 12.0 0.00 0.58 0.00 97 1002.0
20260508125003 48 347 4.0 12.0 0.00 0.58 0.00 98 1001.8
20260508124503 47 334 4.0 12.0 0.00 0.58 0.00 98 1001.9
20260508124003 46 332 5.0 12.0 0.00 0.58 0.00 98 1001.9
20260508123504 46 333 4.0 10.0 0.00 0.58 0.00 99 1001.7
20260508123003 45 331 4.0 9.0 0.00 0.58 0.00 98 1002.0
20260508122503 44 327 4.0 11.0 0.00 0.58 0.00 98 1002.3
20260508122003 44 332 4.0 11.0 0.00 0.58 0.00 98 1002.2
20260508121503 45 341 4.0 12.0 0.00 0.58 0.00 98 1002.2
20260508121003 45 337 4.0 12.0 0.00 0.58 0.00 99 1001.9
20260508120503 44 337 4.0 11.0 0.00 0.58 0.00 98 1001.9
20260508120003 44 333 4.0 11.0 0.00 0.58 0.00 98 1002.0
20260508115504 45 324 4.0 10.0 0.00 0.58 0.00 99 1002.2
20260508115003 44 327 3.0 10.0 0.00 0.58 0.00 99 1002.3
20260508114503 44 332 3.0 8.0 0.00 0.58 0.00 99 1002.0
20260508114003 43 339 3.0 8.0 0.00 0.58 0.00 99 1002.1
20260508113504 44 346 3.0 8.0 0.00 0.58 0.00 99 1002.0
20260508113003 43 341 3.0 8.0 0.00 0.58 0.00 99 1001.9
20260508112504 43 332 3.0 8.0 0.00 0.58 0.00 99 1001.9
20260508112003 42 326 2.0 8.0 0.00 0.58 0.00 99 1002.0
20260508111503 41 336 2.0 7.0 0.00 0.58 0.00 99 1002.0
20260508111003 41 353 3.0 7.0 0.00 0.58 0.00 99 1001.9
20260508110503 41 355 3.0 6.0 0.00 0.58 0.00 99 1001.8
20260508110004 41 354 2.0 5.0 0.00 0.58 0.00 99 1002.1
20260508105506 41 348 2.0 5.0 0.00 0.58 0.00 99 1002.2
20260508105004 41 345 2.0 5.0 0.00 0.58 0.00 99 1002.3
20260508104503 41 340 2.0 5.0 0.00 0.58 0.00 99 1002.5
20260508104003 41 331 2.0 4.0 0.00 0.58 0.00 99 1002.4
20260508103503 41 329 2.0 4.0 0.00 0.58 0.00 99 1002.6
20260508103003 41 328 2.0 4.0 0.00 0.58 0.00 99 1002.4
20260508102503 40 326 1.0 4.0 0.00 0.58 0.00 99 1002.5
20260508102003 40 324 2.0 4.0 0.00 0.58 0.00 99 1002.2
20260508101525 40 324 2.0 4.0 0.00 0.58 0.00 99 1002.2
20260508101003 40 324 1.0 4.0 0.00 0.58 0.00 99 1002.2
20260508100504 40 324 2.0 4.0 0.00 0.58 0.00 99 1002.2
20260508100004 40 324 2.0 4.0 0.00 0.58 0.00 99 1002.0
20260508095503 40 330 2.0 5.0 0.00 0.58 0.00 99 1001.7
20260508095004 40 348 2.0 5.0 0.00 0.58 0.00 99 1001.6
20260508094503 40 5 1.0 6.0 0.00 0.58 0.00 99 1001.8
20260508094003 40 5 1.0 6.0 0.00 0.58 0.00 99 1001.8
20260508093503 40 14 1.0 6.0 0.00 0.58 0.00 99 1002.0
20260508093003 40 16 2.0 6.0 0.00 0.58 0.00 99 1001.9
20260508092504 40 17 2.0 6.0 0.00 0.58 0.00 99 1001.7
20260508092003 40 360 1.0 4.0 0.00 0.58 0.00 98 1002.1
20260508091504 40 360 0.0 4.0 0.00 0.58 0.00 98 1002.0
20260508091003 40 345 1.0 4.0 0.00 0.58 0.00 98 1001.8
20260508090503 40 5 2.0 6.0 0.00 0.58 0.00 98 1002.0
20260508090003 40 16 3.0 8.0 0.00 0.58 0.00 99 1001.7
20260508085503 40 16 4.0 8.0 0.00 0.58 0.00 99 1001.7
20260508085024 40 18 3.0 8.0 0.00 0.58 0.00 99 1001.9
20260508084503 40 26 2.0 7.0 0.00 0.58 0.00 99 1002.0
20260508084024 40 15 2.0 6.0 0.00 0.58 0.00 98 1001.9
20260508083525 40 3 3.0 8.0 0.00 0.58 0.00 98 1001.7
20260508083003 40 358 2.0 5.0 0.00 0.58 0.00 98 1001.6
20260508082525 40 12 2.0 5.0 0.00 0.58 0.00 99 1001.5
20260508082024 41 24 2.0 5.0 0.00 0.58 0.00 99 1001.5
20260508081504 41 32 3.0 6.0 0.00 0.58 0.00 99 1001.7
20260508081024 41 32 3.0 6.0 0.00 0.58 0.00 99 1001.5
20260508080503 41 26 1.0 5.0 0.00 0.58 0.00 99 1001.3
20260508080003 41 0 0.0 1.0 0.00 0.58 0.00 99 1001.4
20260508075504 40 19 1.0 8.0 0.00 0.58 0.00 99 1001.2
20260508075003 40 7 2.0 8.0 0.00 0.58 0.00 99 1001.3
20260508074504 40 3 3.0 8.0 0.00 0.58 0.00 99 1001.3
20260508074003 40 10 3.0 8.0 0.00 0.58 0.00 99 1001.5
20260508073503 40 22 3.0 7.0 0.00 0.58 0.00 98 1001.5
20260508073003 41 26 3.0 7.0 0.00 0.58 0.00 98 1001.4
20260508072504 41 26 4.0 8.0 0.00 0.58 0.00 98 1001.5
20260508072024 41 29 4.0 8.0 0.00 0.58 0.00 98 1001.5
20260508071503 41 35 4.0 8.0 0.00 0.58 0.00 98 1001.5
20260508071024 41 32 5.0 9.0 0.00 0.58 0.00 98 1001.3
20260508070503 41 27 4.0 9.0 0.00 0.58 0.00 98 1001.5
20260508070003 42 25 4.0 9.0 0.00 0.58 0.00 98 1001.4
20260508065525 42 23 4.0 9.0 0.00 0.58 0.00 98 1001.3
20260508065003 42 22 4.0 9.0 0.00 0.58 0.00 98 1001.4
20260508064503 42 25 4.0 9.0 0.00 0.58 0.00 98 1001.3
20260508064004 42 33 3.0 6.0 0.00 0.58 0.00 98 1001.6
20260508063506 43 34 3.0 8.0 0.00 0.58 0.00 98 1001.6
20260508063004 43 44 3.0 8.0 0.00 0.58 0.00 98 1001.5
20260508062503 43 49 3.0 6.0 0.00 0.58 0.00 98 1001.7
20260508062003 43 44 3.0 6.0 0.00 0.58 0.00 98 1001.4
20260508061524 43 44 3.0 7.0 0.00 0.58 0.00 98 1001.5
20260508061003 43 36 3.0 7.0 0.00 0.58 0.00 98 1001.4
20260508060503 44 33 4.0 8.0 0.00 0.58 0.00 98 1001.3
20260508060003 44 25 3.0 8.0 0.00 0.58 0.00 98 1001.3
20260508055503 44 23 3.0 7.0 0.00 0.58 0.00 98 1001.3
20260508055003 44 27 3.0 6.0 0.00 0.58 0.00 98 1001.5
20260508054503 45 24 3.0 6.0 0.00 0.58 0.00 98 1001.2
20260508054003 45 19 2.0 5.0 0.00 0.58 0.00 99 1001.4
20260508053503 45 17 1.0 5.0 0.00 0.58 0.00 99 1001.2
20260508053003 45 0 0.0 2.0 0.00 0.58 0.00 99 1001.1
20260508052503 45 5 0.0 2.0 0.00 0.58 0.00 98 1001.0
20260508052003 45 5 1.0 4.0 0.00 0.58 0.00 98 1001.0
20260508051503 45 5 0.0 4.0 0.00 0.58 0.00 98 1000.9
20260508051003 45 0 0.0 0.0 0.00 0.58 0.00 98 1001.0
20260508050504 45 13 0.0 5.0 0.00 0.58 0.00 98 1001.0
20260508050003 46 10 1.0 5.0 0.00 0.58 0.00 98 1001.1
20260508045503 46 7 2.0 5.0 0.00 0.58 0.00 98 1001.2
20260508045006 46 5 3.0 5.0 0.00 0.58 0.00 98 1001.3
20260508044503 47 3 3.0 5.0 0.00 0.58 0.00 98 1001.2
20260508044003 47 354 3.0 6.0 0.00 0.58 0.00 98 1001.1
20260508043504 48 350 4.0 9.0 0.00 0.58 0.00 98 1001.2
20260508043003 48 357 4.0 9.0 0.00 0.58 0.00 98 1001.4
20260508042503 49 354 4.0 10.0 0.00 0.58 0.00 98 1001.4
20260508042003 49 344 4.0 10.0 0.00 0.58 0.00 98 1001.4
20260508041524 49 324 3.0 10.0 0.00 0.58 0.00 99 1001.4
20260508041024 49 303 3.0 9.0 0.00 0.58 0.00 99 1001.3
20260508040503 49 278 3.0 7.0 0.00 0.58 0.00 99 1001.5
20260508040003 49 268 3.0 6.0 0.00 0.58 0.00 99 1001.6
20260508035503 49 272 4.0 8.0 0.00 0.58 0.00 99 1001.5
20260508035024 49 277 4.0 8.0 0.00 0.58 0.00 99 1001.5
20260508034503 49 274 3.0 7.0 0.00 0.58 0.00 99 1001.4
20260508034025 49 271 3.0 7.0 0.00 0.58 0.00 99 1001.6
20260508033503 49 272 3.0 7.0 0.00 0.58 0.00 99 1001.5
20260508033003 49 273 4.0 9.0 0.00 0.58 0.00 99 1001.5
20260508032524 49 269 5.0 9.0 0.00 0.58 0.00 99 1001.5
20260508032003 49 262 5.0 9.0 0.00 0.58 0.00 99 1001.7
20260508031503 49 260 4.0 7.0 0.00 0.58 0.00 99 1001.7
20260508031003 49 262 4.0 7.0 0.00 0.58 0.00 99 1001.6
20260508030524 49 256 4.0 7.0 0.00 0.58 0.00 99 1001.7
20260508030004 49 247 4.0 7.0 0.00 0.58 0.00 99 1001.7
20260508025503 49 244 3.0 7.0 0.00 0.58 0.58 99 1001.4
20260508025024 49 243 3.0 7.0 0.00 0.58 0.58 99 1001.5
20260508024503 49 243 3.0 6.0 0.00 0.58 0.58 99 1001.4
20260508024003 49 238 3.0 7.0 0.00 0.58 0.58 99 1001.2
20260508023503 49 234 4.0 7.0 0.00 0.58 0.58 99 1001.1
20260508023003 48 230 3.0 7.0 0.00 0.58 0.58 99 1001.2
20260508022503 48 230 4.0 6.0 0.00 0.58 0.58 99 1001.4
20260508022025 48 236 4.0 7.0 0.00 0.58 0.58 99 1001.2
20260508021504 48 237 4.0 10.0 0.00 0.58 0.58 99 1001.1
20260508021003 48 237 5.0 10.0 0.00 0.58 0.58 99 1001.3
20260508020524 48 232 6.0 10.0 0.00 0.58 0.58 99 1001.5
20260508020003 48 228 6.0 12.0 0.00 0.58 0.58 99 1001.5
20260508015503 48 228 6.0 12.0 0.00 0.58 0.58 99 1001.4
20260508015003 48 229 5.0 10.0 0.00 0.58 0.58 98 1001.4
20260508014503 48 223 5.0 9.0 0.00 0.58 0.58 98 1001.2
20260508014003 48 220 6.0 9.0 0.00 0.58 0.58 98 1001.1
20260508013504 48 215 6.0 9.0 0.00 0.58 0.58 98 1000.9
20260508013024 48 203 6.0 9.0 0.00 0.58 0.58 98 1001.0
20260508012503 48 198 6.0 10.0 0.00 0.58 0.58 98 1000.9
20260508012003 48 202 6.0 10.0 0.00 0.58 0.58 98 1001.1
20260508011504 48 203 5.0 9.0 0.00 0.58 0.58 98 1001.3
20260508011006 48 197 5.0 10.0 0.00 0.58 0.58 98 1001.3
20260508010503 48 197 6.0 10.0 0.00 0.58 0.58 98 1001.6
20260508010003 48 192 6.0 10.0 0.00 0.58 0.58 98 1001.8
20260508005504 48 190 6.0 11.0 0.00 0.58 0.58 98 1001.7
20260508005004 48 200 6.0 11.0 0.00 0.58 0.58 98 1001.7
20260508004506 48 203 6.0 10.0 0.00 0.58 0.58 98 1001.5
20260508004003 48 202 6.0 12.0 0.00 0.58 0.58 98 1001.5
20260508003503 48 206 6.0 12.0 0.00 0.58 0.58 98 1001.4
20260508003025 48 202 6.0 16.0 0.00 0.58 0.58 98 1001.6
20260508002503 48 194 8.0 16.0 0.00 0.58 0.58 98 1001.5
20260508002003 48 193 9.0 17.0 0.00 0.58 0.58 98 1001.6
20260508001503 48 192 9.0 17.0 0.00 0.58 0.58 98 1001.6
20260508001024 48 191 9.0 15.0 0.00 0.58 0.58 98 1001.7
20260508000503 48 191 9.0 15.0 0.00 0.58 0.58 98 1001.9
20260508000004 48 188 8.0 15.0 0.00 0.58 0.58 98 1002.1
20260507235503 48 191 7.0 14.0 0.00 0.58 0.58 98 1002.0
20260507235024 48 195 7.0 16.0 0.00 0.58 0.58 97 1001.8
20260507234503 48 194 9.0 16.0 0.00 0.58 0.58 97 1001.8
20260507234003 48 196 9.0 15.0 0.00 0.58 0.58 98 1002.1
20260507233003 49 204 9.0 15.0 0.00 0.58 0.58 97 1002.3
20260507232503 49 201 9.0 15.0 0.00 0.58 0.58 97 1002.3
20260507232004 49 191 10.0 16.0 0.00 0.58 0.58 97 1002.3
20260507231504 49 187 10.0 18.0 0.00 0.58 0.58 97 1002.1
20260507231003 49 193 10.0 18.0 0.01 0.58 0.58 97 1002.6
20260507230503 49 195 9.0 18.0 0.01 0.58 0.58 97 1002.4
20260507230003 49 197 7.0 16.0 0.01 0.58 0.58 97 1002.1
20260507225503 49 199 8.0 16.0 0.01 0.58 0.58 97 1002.0
20260507225003 49 201 9.0 16.0 0.01 0.58 0.58 97 1002.7
20260507224504 49 201 8.0 16.0 0.01 0.58 0.58 97 1002.5
20260507224003 49 197 9.0 15.0 0.01 0.58 0.58 97 1002.5
20260507223503 49 198 9.0 17.0 0.01 0.58 0.58 97 1002.1
20260507223003 49 196 9.0 17.0 0.01 0.58 0.58 97 1002.2
20260507222503 49 195 11.0 21.0 0.01 0.58 0.58 97 1002.4
20260507222003 49 191 12.0 21.0 0.01 0.58 0.58 97 1002.4
20260507221503 49 190 11.0 20.0 0.01 0.58 0.58 97 1002.3
20260507221003 49 195 12.0 22.0 0.01 0.57 0.57 97 1002.4
20260507220024 49 186 13.0 22.0 0.03 0.57 0.57 97 1001.9
20260507215503 49 185 14.0 22.0 0.05 0.57 0.57 97 1001.9
20260507215003 49 181 14.0 24.0 0.07 0.57 0.57 97 1001.6
20260507214503 49 178 14.0 24.0 0.09 0.57 0.57 97 1001.6
20260507214003 49 171 15.0 21.0 0.10 0.57 0.57 97 1001.6
20260507213503 49 169 15.0 24.0 0.12 0.57 0.57 97 1001.6
20260507213003 49 169 14.0 24.0 0.14 0.57 0.57 97 1001.6
20260507212503 49 168 14.0 25.0 0.16 0.57 0.57 96 1002.1
20260507211503 49 177 11.0 20.0 0.21 0.57 0.57 96 1002.5
20260507211003 49 179 10.0 19.0 0.24 0.57 0.57 96 1002.9
20260507210504 49 178 11.0 20.0 0.27 0.56 0.56 96 1003.2
20260507210024 49 179 11.0 20.0 0.28 0.54 0.54 96 1003.2
20260507205503 50 182 11.0 22.0 0.29 0.53 0.53 96 1003.8
20260507205025 50 181 11.0 22.0 0.29 0.50 0.50 96 1003.8
20260507204503 50 188 13.0 25.0 0.29 0.49 0.49 96 1003.9
20260507204003 50 192 14.0 25.0 0.28 0.47 0.47 96 1003.9
20260507203503 51 195 13.0 23.0 0.31 0.46 0.46 96 1004.2
20260507203003 51 207 12.0 22.0 0.30 0.43 0.43 97 1004.5
20260507202503 51 202 11.0 19.0 0.28 0.42 0.42 97 1004.5
20260507202003 51 187 11.0 21.0 0.28 0.39 0.39 97 1003.9
20260507201503 51 186 12.0 21.0 0.25 0.36 0.36 97 1003.9
20260507201003 51 176 14.0 23.0 0.24 0.33 0.33 97 1004.0
20260507200506 51 177 14.0 23.0 0.21 0.29 0.29 96 1004.0
20260507200024 51 178 15.0 30.0 0.20 0.26 0.27 96 1004.1
20260507195525 51 177 16.0 30.0 0.19 0.24 0.24 96 1004.1